Other Public Products
Issued by NWS Grand Forks, ND

Home | Current Version | Previous Version | Graphics & Text | Print | Product List | Glossary On
Versions: 1 2 3 4 5 6 7 8 9 10 11 12 13 14 15 16 17 18 19 20 21 22 23 24 25 26 27 28 29 30 31 32 33 34 35 36 37 38 39 40 41 42 43 44 45 46 47 48 49 50
000
FPUS83 KFGF 152310
OPUFGF
PRAIRIE TO PINES WEATHER ROUNDUP
NATIONAL WEATHER SERVICE EASTERN NORTH DAKOTA/GRAND FORKS ND
600 PM CDT MON SEP 15 2014

 **SATELLITE DATA USED TO AUGMENT SKY COVER AT AUTOMATED STATIONS**
 *****  WEATHER ACROSS EASTERN NORTH DAKOTA  *****

CITY           SKY/WX    TMP DP  RH WIND       PRES   REMARKS
GRAND FORKS    MOSUNNY   67  38  34 W10       30.10F
GRAND FORKS AF SUNNY     66  39  37 W9        30.10F
GRAND CITY NWS   N/A     64 N/A N/A W7          N/A
BUXTON         NOT AVBL
DEVILS LAKE    SUNNY     66  37  34 W15       30.09S
FARGO          SUNNY     64  36  35 SW9       30.16F
WAHPETON ARPT  CLEAR     61  32  33 W8        30.19S
$$

 *****  WEATHER ACROSS CENTRAL AND WESTERN NORTH DAKOTA  *****

CITY           SKY/WX    TMP DP  RH WIND       PRES   REMARKS
JAMESTOWN      SUNNY     63  37  38 W12       30.15F
BISMARCK       SUNNY     68  35  29 SW10      30.15F
MINOT          SUNNY     67  34  29 SW9       30.09F
MINOT AFB      SUNNY     67  34  29 W7        30.08F
GARRISON         N/A     67  37  33 W8        30.11F
WILLISTON      SUNNY     68  32  26 S9        30.08F
DICKINSON      SUNNY     65  37  35 S9        30.11S
HETTINGER      SUNNY     65  36  34 SW8       30.15F
$$

 *****  OTHER OBSERVATIONS NORTHEAST NORTH DAKOTA  *****

CITY           SKY/WX    TMP DP  RH WIND       PRES   REMARKS
WALHALLA         N/A     64  32  29 NW8G17    30.07S
LANGDON        FAIR      64  34  32 W14       30.08S
CAVALIER       FAIR      66  39  37 W12G20    30.06S
GRAFTON        FAIR      64  39  39 W14G21    30.07F
CANDO          FAIR      64  34  32 W12       30.10S
FORT TOTTEN      N/A     67  37  33 NW7       29.95S
ROLLA          FAIR      63  36  36 W10G18    30.10S
RUGBY          FAIR      64  37  36 W13       30.10S
 ***** THE ABOVE OBSERVATIONS ARE NON NWS ARE NOT QUALITY
        CONTROLLED AND MAY MIS-REPORT RAIN FOR SNOW...
$$

 *****  OTHER OBSERVATIONS SOUTHEAST NORTH DAKOTA *****

CITY           SKY/WX    TMP DP  RH WIND       PRES   REMARKS
COOPERSTOWN    NOT AVBL
VALLEY CITY    FAIR      63  37  39 W8        30.16S
OAKES            N/A     64  36  34 SW8       30.18F
GWINNER        CLEAR     63  37  39 W7        30.20S
SHEYENNE NWR     N/A     65  37  35 W6        29.95S
BUFFALO        NOT AVBL
WYNDMERE         N/A     64  36  34 W6          N/A
 ***** THE ABOVE OBSERVATIONS ARE NON NWS ARE NOT QUALITY
       CONTROLLED AND MAY MIS-REPORT RAIN FOR SNOW...
$$

  *****  WEATHER ACROSS NORTHERN MINNESOTA  *****

CITY           SKY/WX    TMP DP  RH WIND       PRES   REMARKS
FLAG ISLAND    SUNNY     61  36  39 W10       30.06F
WARROAD        SUNNY     61  37  41 W5        30.09F
ROSEAU         SUNNY     63  34  34 W3        30.09F
HALLOCK        SUNNY     66  36  32 W12G18    30.06F
THF RVR FALLS  MOSUNNY   63  37  39 SW12      30.11F
HALSTAD          N/A     65  30  27 SW10        N/A
FOSSTON        PTSUNNY   63  37  39 W9        30.15S
BAUDETTE       SUNNY     59  35  40 VRB6      30.10S
WASKISH        MOSUNNY   57  43  58 CALM      30.12F
CROOKSTON      PTSUNNY   64  37  36 W14       30.12S
$$
  *****  WEATHER ACROSS CENTRAL AND WEST MINNESOTA  *****

CITY           SKY/WX    TMP DP  RH WIND       PRES   REMARKS
BEMIDJI        MOSUNNY   59  36  43 W9        30.15S
PARK RAPIDS    MOSUNNY   59  33  37 W10       30.17S
WADENA         SUNNY     57  36  44 NW8       30.19R
DETROIT LAKES  MOSUNNY   59  34  38 W7        30.19R
MOORHEAD       MOSUNNY   64  28  25 SW8       30.17S
FERGUS FALLS   SUNNY     61  30  31 W7        30.19F
ELBOW LAKE     FAIR      60  34  37 NW3       30.19F
MORRIS MN      SUNNY     63  32  31 NW6       30.20S
STAPLES        SUNNY     57  30  35 NW9       30.18S
WHEATON        SUNNY     61  34  36 W6        30.22S
$$
  *****  WEATHER ELSEWHERE ACROSS MINNESOTA  *****

CITY           SKY/WX    TMP DP  RH WIND       PRES   REMARKS
DULUTH         MOSUNNY   55  34  45 W7        30.15R
INTRNTL FALLS  SUNNY     55  37  50 W6        30.10S
ELY            SUNNY     54  36  50 W7        30.12S
CLOQUET        MOSUNNY   55  32  41 NW7       30.16S
BRAINERD       SUNNY     58  34  40 NE3       30.18F
HIBBING        PTSUNNY   56  35  45 W3        30.15S
ALEXANDRIA     SUNNY     59  34  39 NW7       30.21F
SAINT CLOUD    MOSUNNY   62  36  37 N9        30.19S
MINNEAPOLIS    MOSUNNY   60  37  42 W10       30.19S
$$

  *****  WEATHER ACROSS SOUTH DAKOTA  *****

CITY           SKY/WX    TMP DP  RH WIND       PRES   REMARKS
SIOUX FALLS    MOSUNNY   62  40  44 W3        30.23S
BROOKINGS      NOT AVBL
WATERTOWN      SUNNY     59  33  37 W6        30.22S
HURON          SUNNY     63  31  30 CALM      30.22F
SISSETON         N/A     64  35  34 NW9       30.20S
ABERDEEN       SUNNY     63  35  35 W5        30.20F
MITCHELL       SUNNY     64  37  36 CALM      30.24S
PIERRE         SUNNY     65  35  33 SE5       30.19F
MOBRIDGE       SUNNY     64  38  38 SE10      30.16F
RAPID CITY     SUNNY     68  43  40 S20       30.15F
$$

  *****  SOME WEATHER IN NEARBY STATES *****

CITY           SKY/WX    TMP DP  RH WIND       PRES   REMARKS
GLASGOW MT     SUNNY     68  36  30 VRB5      30.05F
GREAT FALLS MT SUNNY     77  36  22 NE6       30.03S
CHEYENNE WY    SUNNY     67  39  35 S17       30.27F
SCOTTSBLUFF NE SUNNY     72  45  37 SE17      30.19F
OMAHA NE       PTSUNNY   62  45  53 N6        30.24S
DES MOINES IA  PTSUNNY   61  46  57 N10       30.20R
DAVENPORT IA   CLOUDY    57  49  74 N12       30.16R
CHICAGO IL     CLOUDY    59  53  80 NW5       30.10R
EAU CLAIRE WI  MOSUNNY   59  37  44 NW10      30.17R
LA CROSSE WI   SUNNY     62  47  57 NW10      30.16S
$$

  *****  SOME NATIONAL WEATHER *****

CITY           SKY/WX    TMP DP  RH WIND       PRES   REMARKS
LA GUARDIA NY  MOCLDY    69  44  40 S10       30.10S
RALEIGH NC     CLOUDY    71  64  78 S5        30.15R
ATLANTA GA     CLOUDY    77  70  79 E5        30.14R
NEW ORLEANS LA CLOUDY    79  75  87 SE6       30.05S
OKLAHOMA CITY  PTSUNNY   84  66  54 S7        30.10F
ALBUQUERQUE NM MOSUNNY   85  52  32 S7G18     30.14F
SALT LAKE CITY MOSUNNY   88  36  15 N7        30.06F
LOS ANGELES CA MOSUNNY   82  59  45 W15       29.74F
BOISE ID       MOSUNNY   90  33  13 N7        29.95F
SEATTLE WA     MOSUNNY   86  41  20 W7        29.82F
$$

*** WEATHER ACROSS MANITOBA...SASKATCHEWAN AND ONTARIO ***
                ***ONTARIO***

CITY           SKY/WX    TMP DP  RH WIND       PRES   REMARKS
GERALDTON      PTCLDY    52  39  62 W9        29.99S
THUNDER BAY    MOSUNNY   57  39  51 W7        30.06S
SIOUX LOOKOUT  PTSUNNY   57  39  51 W9        29.99F
TORONTO        LGT RAIN  57  54  88 S6        30.07F
BIG TROUT LK   CLOUDY    55  39  54 NW12G18   29.75F
PICKLE LAKE    MOSUNNY   57  36  44 W14G21    29.90F
DRYDEN         MOSUNNY   59  36  41 W16G22    30.02S
KENORA         PTSUNNY   57  34  41 W15G21    30.06S
$$
                *** MANITOBA***

CITY           SKY/WX    TMP DP  RH WIND       PRES   REMARKS
BRANDON        MOSUNNY   64  45  48 SW13      30.03F
DAUPHIN        PTSUNNY   66  45  45 W9        29.96S
ISLAND LAKE    PTSUNNY   61  37  41 W9        29.80F
PILOT MOUND      N/A     63  36  36 W8          N/A
THE PAS        PTSUNNY   63  43  48 W7        29.86F
THOMPSON       LGT RAIN  37  37 100 N10       29.96R
WINNIPEG       MOSUNNY   63  36  36 W8        30.04F
LYNN LAKE      CLOUDY    39  28  65 MISG      30.02R
CHURCHILL      SNOWSHWR  36  30  80 N23G30    29.99
GILLAM         CLOUDY    36  32  87 N13G20    29.96R
$$
                ***SASKATCHEWAN***

CITY           SKY/WX    TMP DP  RH WIND       PRES   REMARKS
ESTEVAN        MOSUNNY   66  37  34 SW10      30.07F
KINDERSLEY     SUNNY     72  39  30 W8        29.98F
LLOYDMINSTER   MOSUNNY   72  39  30 W13G20    29.93F
PRINCE ALBERT  PTSUNNY   66  46  48 N8        29.93S
REGINA         MOSUNNY   68  39  34 NW12G18   30.01F


USA.gov is the U.S. government's official web portal to all federal, state and local government web resources and services.